Regional Weather Roundup
Issued by NWS

Home | Current Version | Previous Version | Graphics & Text | Print | Product List | Glossary On
Versions: 1 2 3 4 5 6 7 8 9 10 11 12 13 14 15 16 17 18 19 20 21 22 23 24 25 26 27 28 29 30 31 32 33 34 35 36 37 38 39 40 41 42 43 44 45 46 47 48 49 50
000
ASUS45 KBOI 261510
RWRID
WEATHER ROUNDUP FOR IDAHO
NATIONAL WEATHER SERVICE BOISE ID
800 AM MST MON JAN 26 2015

NOTE: "FAIR" INDICATES FEW OR NO CLOUDS BELOW 12000 FEET
WITH NO SIGNIFICANT WEATHER AND/OR OBSTRUCTIONS TO VISIBILITY

IDZ012-014-261600-
SOUTHWEST IDAHO


CITY           SKY/WX    TMP DP  RH WIND       PRES   REMARKS
BOISE          CLEAR     29  27  92 E7        30.35R WCI  22
CALDWELL       CLOUDY    25  18  74 CALM      30.37S VSB 1/4
MOUNTAIN HOME  CLEAR     31  29  93 SE12      30.33F WCI  22
$$

IDZ016-017-261600-
SOUTHCENTRAL IDAHO


CITY           SKY/WX    TMP DP  RH WIND       PRES   REMARKS
BURLEY         FOG       28  27  96 E15       30.35F VSB 3/4 WCI  16
JEROME         CLEAR     30  27  88 NE18      30.34R WCI  18
TWIN FALLS     FOG       31  28  89 E13       30.33F VSB 1/4 WCI  21
$$

IDZ019>023-261600-
SOUTHEAST IDAHO


CITY           SKY/WX    TMP DP  RH WIND       PRES   REMARKS
IDAHO FALLS    MOCLDY    21  18  88 N7        30.42F WCI  12
POCATELLO      FOG       27  27 100 NE6       30.42F VSB 1/4 WCI  20
REXBURG        MOCLDY    17  16  95 NE6       30.43S WCI   9
$$

IDZ006-010-011-018-031-032-261600-
CENTRAL IDAHO MOUNTAINS


CITY           SKY/WX    TMP DP  RH WIND       PRES   REMARKS
MCCALL         HAZE      24  19  81 CALM      30.28F VSB 1/2
HAILEY         CLEAR     30  25  80 W15       30.38F WCI  19
STANLEY          N/A     11   6  81 CALM      30.42F
SALMON         CLOUDY    23  21  93 SE3       30.41S VSB 1/4
CHALLIS        CLEAR     22  20  92 W3        30.38F
$$

IDZ002-004-006-007-026-261600-
NORTHERN IDAHO


CITY           SKY/WX    TMP DP  RH WIND       PRES   REMARKS
LEWISTON       PTCLDY    48  37  65 E12G17    30.09S
LOWELL           N/A     35  33  92 N5        30.25F WCI  31
COEUR D`ALENE  CLOUDY    37  36  93 NE10      30.09F VSB 3/4 WCI  30
MULLAN PASS    MOCLDY    42  27  55 S7        30.15F
$$



USA.gov is the U.S. government's official web portal to all federal, state and local government web resources and services.